Regional Weather Roundup
Issued by NWS

Home | Current Version | Previous Version | Graphics & Text | Print | Product List | Glossary On
Versions: 1 2 3 4 5 6 7 8 9 10 11 12 13 14 15 16 17 18 19 20 21 22 23 24 25 26 27 28 29 30 31 32 33 34 35 36 37 38 39 40 41 42 43 44 45 46 47 48 49 50
000
ASUS45 KSLC 221810
RWRUT

UTAH REGIONAL WEATHER ROUNDUP
NATIONAL WEATHER SERVICE SALT LAKE CITY UT
1100 AM MST MON DEC 22 2014

UTZ001>011-023>025-221900-

NORTHERN UTAH

CITY           SKY/WX    TMP DP  RH WIND       PRES   REMARKS
BRIGHAM CITY   CLOUDY    43  33  68 NW14      30.02R
HILL AFB       NOT AVBL
LOGAN          CLOUDY    40  32  73 CALM      29.98R
OGDEN          CLOUDY    40  35  83 W3        30.00S
PROVO AIRPORT  LGT RAIN  36  34  93 CALM      30.02S
SALT LAKE CITY CLOUDY    41  38  89 NE8       29.97F
VERNAL         CLOUDY    38  34  85 NE5       29.86S WCI  34
WENDOVER       CLOUDY    48  36  61 NW22G28   30.05R
HEBER CITY     CLOUDY    34  34 100 NE3       29.94R
WEST JORDAN    CLOUDY    39  39 100 N3        30.01S

$$

UTZ012>022-026-027-221900-

SOUTHERN/CENTRAL UTAH

CITY           SKY/WX    TMP DP  RH WIND       PRES   REMARKS
BLANDING       CLOUDY    39  37  93 NW7       29.98F WCI  34
BRYCE CANYON   PTSUNNY   42  31  64 W15G24    30.03F
CEDAR CITY     SUNNY     52  34  50 S6        30.04F
DELTA          CLOUDY    41  40  98 N6        30.04S
MILFORD        CLOUDY    49  36  61 S13       30.01F
MOAB/CYNLANDS  PTSUNNY   39  34  82 NE3       29.88S
PRICE          CLOUDY    41  34  76 CALM      29.89S
ST GEORGE      CLOUDY    46  36  66 CALM      30.08F
KANAB          SUNNY     46  36  66 CALM      30.08F

$$

REGIONAL REPORTS     COLORADO/ARIZONA

CITY           SKY/WX    TMP DP  RH WIND       PRES   REMARKS
CRAIG, CO      PTSUNNY   32  26  78 W16       29.81F WCI  21
GRAND JUNCTION CLOUDY    36  35  96 SW3       29.85F
RIFLE          CLOUDY    36  31  82 W8        29.84F WCI  30
MONTROSE       LGT RAIN  36  34  92 NW7       29.88F WCI  30
CORTEZ         LGT RAIN  39  35  86 W9        29.91F WCI  33
PAGE, AZ       SUNNY     51  35  54 SE3       29.94F
GRAND CANYON   SUNNY     48  34  58 N13G18    30.09S
KINGMAN        SUNNY     61  37  41 CALM      30.10S
FLAGSTAFF      SUNNY     50  32  50 SW10      30.10R

$$

REGIONAL REPORTS    NEVADA/IDAHO/WYOMING

CITY           SKY/WX    TMP DP  RH WIND       PRES   REMARKS
LAS VEGAS, NV  SUNNY     57  41  55 SE6       30.04S
ELY            CLOUDY    45  36  70 NW18      30.15R
ELKO           CLOUDY    44  37  76 NW20G28   30.15S
POCATELLO, ID  PTSUNNY   37  35  92 W16       30.02R WCI  28
BURLEY         MOSUNNY   40  34  79 W17G37    30.03R WCI  31
EVANSTON, WY   CLOUDY    32  25  75 W22G32    29.93R WCI  19
ROCK SPRINGS   MOSUNNY   32  24  72 W22G30    29.82R WCI  19
KEMMERER       CLOUDY    32  27  80 W26G33    29.88R HAZE    WCI  18

$$


USA.gov is the U.S. government's official web portal to all federal, state and local government web resources and services.